sat.trackr.live / text

‹ back to catalog

COSMOS 2600

NORAD 67674 · 2026-023A

PAYLOAD ACTIVE UNKNOWN

§ Identity

Operator
Country
CIS
Launch date
2026-02-05
Launch site
PLMSC
Launch vehicle
Mass (kg)
RCS (m²)

External: N2YO · Heavens-Above · Gunter

§ Orbital elements

Epoch: 2026-09-20T22:35:17.409408Z

Period
90.97 min
Inclination
96.7518°
Eccentricity
0.0005039
Mean motion
15.82876865 rev/d
Perigee alt
318.9 km
Apogee alt
325.7 km
Semi-major
6,700.4 km
B*
1.9446e-4
RAAN
334.8832°
Arg perigee
196.9127°
Mean anomaly
163.1977°
Rev number
3,593

§ Raw data

COSMOS 26001 67674U 26023A   26263.94117372  .00041052  00000+0  19446-3 0  99942 67674  96.7518 334.8832 0005039 196.9127 163.1977 15.82876865 35931

JSON: /api/v1/satellites/67674 · /tle

For live sub-satellite position, see the globe view (requires WebGL).

§ Visibility from observer

Set your observer location to see the next 7 days of passes ≥ 10°. The values pass through the URL so the page stays shareable.

No JS? Fill the form by hand. The geolocation button needs JavaScript.